KQ4UWH Weather Reports


Display with metric or nautical units.
time (UTC)temp
F
wind
direction
speed
MPH
gust
MPH
rain 1hr
in
rain 24hr
in
rain mn
in
humidity
%
barometer
mb
20260506123409 65 160 2.0 2.0 0.00 0.00 0.00 89 1239.7
20260506122906 65 134 1.0 2.0 0.00 0.00 0.00 89 1239.7
20260506122403 65 151 1.0 2.0 0.00 0.00 0.00 89 1239.7
20260506121901 65 137 2.0 2.0 0.00 0.00 0.00 89 1239.7
20260506121358 65 140 1.0 1.0 0.00 0.00 0.00 89 1239.7
20260506120855 65 133 2.0 2.0 0.00 0.00 0.00 89 1239.7
20260506120352 66 178 2.0 2.0 0.00 0.00 0.00 88 1239.7
20260506115850 66 156 1.0 2.0 0.00 0.00 0.00 88 1239.7
20260506115348 66 132 0.0 0.0 0.00 0.00 0.00 88 1239.7
20260506114845 65 127 1.0 1.0 0.00 0.00 0.00 88 1239.7
20260506114343 65 160 2.0 2.0 0.00 0.00 0.00 89 1239.7
20260506113842 65 130 1.0 1.0 0.00 0.00 0.00 89 1239.7
20260506113338 65 147 1.0 2.0 0.00 0.00 0.00 89 1239.7
20260506112835 65 139 1.0 1.0 0.00 0.00 0.00 89 1239.7
20260506112332 64 135 1.0 2.0 0.00 0.00 0.00 89 1239.7
20260506111829 64 130 1.0 1.0 0.00 0.00 0.00 89 1239.7
20260506111328 64 128 1.0 1.0 0.00 0.00 0.00 89 1239.7
20260506110825 64 136 1.0 1.0 0.00 0.00 0.00 89 1239.7
20260506110322 64 153 2.0 2.0 0.00 0.00 0.00 89 1239.7
20260506105819 64 129 0.0 0.0 0.00 0.00 0.00 89 1239.7
20260506105315 64 129 0.0 0.0 0.00 0.00 0.00 89 1239.7
20260506104813 64 139 1.0 1.0 0.00 0.00 0.00 89 1239.7
20260506104310 64 131 0.0 0.0 0.00 0.00 0.00 88 1239.7
20260506103808 64 148 2.0 2.0 0.00 0.00 0.00 88 1239.7
20260506103305 64 146 0.0 0.0 0.00 0.00 0.00 88 1239.7
20260506102803 64 129 0.0 0.0 0.00 0.00 0.00 88 1239.7
20260506102300 64 126 0.0 0.0 0.00 0.00 0.00 88 1239.7
20260506101758 64 131 1.0 2.0 0.00 0.00 0.00 88 1239.7
20260506101253 64 125 0.0 1.0 0.00 0.00 0.00 87 1239.7
20260506100751 64 151 2.0 2.0 0.00 0.00 0.00 87 1239.7
20260506100249 65 151 1.0 2.0 0.00 0.00 0.00 87 1239.7
20260506095748 65 143 1.0 2.0 0.00 0.00 0.00 87 1239.7
20260506095244 65 122 1.0 1.0 0.00 0.00 0.00 87 1239.7
20260506094741 65 140 2.0 2.0 0.00 0.00 0.00 87 1239.7
20260506094239 65 148 1.0 1.0 0.00 0.00 0.00 86 1239.7
20260506093738 65 159 1.0 2.0 0.00 0.00 0.00 86 1239.7
20260506093234 65 152 0.0 0.0 0.00 0.00 0.00 86 1239.7
20260506092732 65 117 0.0 0.0 0.00 0.00 0.00 86 1239.7
20260506092230 65 120 0.0 0.0 0.00 0.00 0.00 86 1239.7
20260506091727 65 127 0.0 0.0 0.00 0.00 0.00 85 1239.7
20260506091224 65 118 0.0 0.0 0.00 0.00 0.00 85 1239.7
20260506090722 65 121 0.0 0.0 0.00 0.00 0.00 85 1239.7
20260506090219 65 121 0.0 0.0 0.00 0.00 0.00 85 1239.7
20260506085716 65 122 0.0 0.0 0.00 0.00 0.00 84 1239.7
20260506085212 65 127 0.0 0.0 0.00 0.00 0.00 84 1239.7
20260506084709 65 138 0.0 0.0 0.00 0.00 0.00 84 1239.7
20260506084205 65 126 1.0 1.0 0.00 0.00 0.00 84 1239.7
20260506083702 65 143 2.0 2.0 0.00 0.00 0.00 83 1239.7
20260506083200 65 117 0.0 0.0 0.00 0.00 0.00 82 1239.7
20260506082657 65 118 0.0 0.0 0.00 0.00 0.00 82 1239.7
20260506082156 65 117 0.0 0.0 0.00 0.00 0.00 81 1239.7
20260506081654 65 114 0.0 0.0 0.00 0.00 0.00 81 1239.7
20260506081152 65 119 0.0 0.0 0.00 0.00 0.00 80 1239.7
20260506080650 65 144 2.0 2.0 0.00 0.00 0.00 80 1239.7
20260506080146 65 122 0.0 1.0 0.00 0.00 0.00 80 1239.7
20260506073130 65 117 0.0 0.0 0.00 0.00 0.00 78 1239.7
20260506072626 65 120 0.0 0.0 0.00 0.00 0.00 78 1239.7
20260506072125 65 120 0.0 0.0 0.00 0.00 0.00 77 1239.7
20260506071622 65 119 0.0 0.0 0.00 0.00 0.00 77 1239.7
20260506071119 65 115 0.0 0.0 0.00 0.00 0.00 77 1239.7
20260506070616 65 124 0.0 0.0 0.00 0.00 0.00 77 1239.7
20260506070114 65 115 0.0 0.0 0.00 0.00 0.00 77 1239.7
20260506062050 66 123 0.0 0.0 0.00 0.00 0.00 74 1239.7
20260506061546 66 118 0.0 0.0 0.00 0.00 0.00 73 1239.7
20260506061044 66 114 0.0 0.0 0.00 0.00 0.00 72 1239.7
20260506060543 66 117 0.0 0.0 0.00 0.00 0.00 72 1239.7
20260506051011 68 166 2.0 2.0 0.00 0.00 0.00 66 1239.7
20260506050509 68 149 2.0 2.0 0.00 0.00 0.00 65 1239.7
20260506044959 68 136 1.0 1.0 0.00 0.00 0.00 63 1239.7
20260506044457 68 160 0.0 0.0 0.00 0.00 0.00 63 1239.7
20260506043954 69 120 0.0 0.0 0.00 0.00 0.00 61 1239.7
20260506043451 69 118 0.0 0.0 0.00 0.00 0.00 61 1239.7
20260506042949 69 129 2.0 2.0 0.00 0.00 0.00 60 1239.7
20260506042448 69 153 1.0 2.0 0.00 0.00 0.00 61 1239.7
20260506041946 69 130 0.0 0.0 0.00 0.00 0.00 60 1239.7
20260506041444 69 124 0.0 0.0 0.00 0.00 0.00 60 1239.7
20260506040941 69 126 1.0 2.0 0.00 0.00 0.00 59 1239.7
20260506040438 69 121 0.0 0.0 0.00 0.00 0.00 58 1239.7
20260506035934 69 117 0.0 0.0 0.00 0.00 0.00 59 1239.7
20260506035432 69 129 0.0 0.0 0.00 0.00 0.00 58 1239.7
20260506034928 69 132 0.0 0.0 0.00 0.00 0.00 58 1239.7
20260506034425 69 110 0.0 0.0 0.00 0.00 0.00 58 1239.7
20260506033922 69 119 0.0 1.0 0.00 0.00 0.00 56 1239.7
20260506033420 69 120 1.0 1.0 0.00 0.00 0.00 56 1239.7
20260506032916 69 131 0.0 0.0 0.00 0.00 0.00 56 1239.7
20260506032413 69 129 0.0 0.0 0.00 0.00 0.00 57 1239.7
20260506031910 68 120 0.0 0.0 0.00 0.00 0.00 57 1239.7
20260506031407 68 125 0.0 0.0 0.00 0.00 0.00 57 1239.7
20260506030905 68 123 0.0 0.0 0.00 0.00 0.00 58 1239.7
20260506030403 68 115 0.0 0.0 0.00 0.00 0.00 58 1239.7
20260506025859 68 117 0.0 0.0 0.00 0.00 0.00 58 1239.7
20260506025356 68 119 0.0 0.0 0.00 0.00 0.00 58 1239.7
20260506024853 68 115 0.0 0.0 0.00 0.00 0.00 57 1239.7
20260506024350 68 119 0.0 0.0 0.00 0.00 0.00 56 1239.7
20260506023846 68 119 0.0 0.0 0.00 0.00 0.00 57 1239.7
20260506023343 68 119 0.0 0.0 0.00 0.00 0.00 56 1239.7
20260506022840 68 118 0.0 0.0 0.00 0.00 0.00 56 1239.7
20260506022337 68 118 0.0 0.0 0.00 0.00 0.00 55 1239.7
20260506021835 68 109 0.0 0.0 0.00 0.00 0.00 55 1239.7
20260506021332 68 119 0.0 0.0 0.00 0.00 0.00 55 1239.7
20260506020828 68 120 0.0 0.0 0.00 0.00 0.00 54 1239.7
20260506020327 68 120 0.0 0.0 0.00 0.00 0.00 53 1239.7
20260506015824 68 119 0.0 0.0 0.00 0.00 0.00 53 1239.7
20260506015321 68 119 0.0 0.0 0.00 0.00 0.00 52 1239.7
20260506014818 68 118 0.0 0.0 0.00 0.00 0.00 52 1239.7
20260506014315 68 119 0.0 0.0 0.00 0.00 0.00 52 1239.7
20260506013811 68 118 0.0 0.0 0.00 0.00 0.00 51 1239.7
20260506013309 68 117 0.0 0.0 0.00 0.00 0.00 52 1239.7
20260506012805 68 118 0.0 0.0 0.00 0.00 0.00 52 1239.7
20260506012307 68 119 0.0 0.0 0.00 0.00 0.00 52 1239.7
20260506011759 68 118 0.0 0.0 0.00 0.00 0.00 51 1239.7
20260506011256 68 118 0.0 0.0 0.00 0.00 0.00 50 1239.7
20260506010754 69 118 0.0 0.0 0.00 0.00 0.00 50 1239.7
20260506010251 69 117 0.0 0.0 0.00 0.00 0.00 49 1239.7
20260506005748 69 113 0.0 0.0 0.00 0.00 0.00 50 1239.7
20260506005245 69 117 0.0 0.0 0.00 0.00 0.00 50 1239.7
20260506004740 69 115 0.0 0.0 0.00 0.00 0.00 47 1239.7
20260506004239 70 114 0.0 0.0 0.00 0.00 0.00 48 1239.7
20260506003734 70 112 0.0 0.0 0.00 0.00 0.00 46 1239.7
20260506003231 71 111 0.0 0.0 0.00 0.00 0.00 45 1239.7
20260506002727 72 115 0.0 0.0 0.00 0.00 0.00 44 1239.7
20260506002223 72 118 0.0 0.0 0.00 0.00 0.00 43 1239.7
20260506001719 73 119 0.0 0.0 0.00 0.00 0.00 43 1239.7
20260506001217 73 110 0.0 0.0 0.00 0.00 0.00 42 1239.7
20260506000714 73 118 0.0 0.0 0.00 0.00 0.00 41 1239.7
20260506000212 73 120 0.0 0.0 0.00 0.00 0.00 41 1239.7
20260505235708 73 120 0.0 0.0 0.00 0.00 0.00 40 1239.7
20260505235206 73 130 0.0 0.0 0.00 0.00 0.00 40 1239.7
20260505234703 74 122 0.0 0.0 0.00 0.00 0.00 40 1239.7
20260505234200 74 126 0.0 0.0 0.00 0.00 0.00 39 1239.7
20260505233656 74 126 0.0 0.0 0.00 0.00 0.00 39 1239.7
20260505233154 74 112 0.0 0.0 0.00 0.00 0.00 39 1239.7
20260505232652 75 116 1.0 1.0 0.00 0.00 0.00 38 1239.7
20260505232149 75 127 0.0 0.0 0.00 0.00 0.00 38 1239.7
20260505231645 76 127 0.0 0.0 0.00 0.00 0.00 37 1239.7
20260505231145 76 141 1.0 2.0 0.00 0.00 0.00 38 1239.7
20260505230642 76 119 2.0 2.0 0.00 0.00 0.00 39 1239.7
20260505230138 77 109 1.0 2.0 0.00 0.00 0.00 39 1239.7
20260505225634 77 200 3.0 3.0 0.00 0.00 0.00 38 1239.7
20260505225131 77 135 0.0 0.0 0.00 0.00 0.00 40 1239.7
20260505224628 78 123 0.0 0.0 0.00 0.00 0.00 39 1239.7
20260505224125 78 140 1.0 2.0 0.00 0.00 0.00 37 1239.7
20260505223622 79 166 2.0 2.0 0.00 0.00 0.00 36 1239.7
20260505223119 80 132 1.0 1.0 0.00 0.00 0.00 34 1239.7
20260505222615 80 123 0.0 0.0 0.00 0.00 0.00 35 1239.7
20260505222111 80 125 1.0 1.0 0.00 0.00 0.00 35 1239.7
20260505221608 80 132 2.0 2.0 0.00 0.00 0.00 36 1239.7
20260505221105 80 193 0.0 0.0 0.00 0.00 0.00 35 1239.7
20260505220602 80 103 2.0 2.0 0.00 0.00 0.00 34 1239.7
20260505220100 81 182 4.0 6.0 0.00 0.00 0.00 33 1239.7
20260505215558 80 102 0.0 0.0 0.00 0.00 0.00 35 1239.7
20260505215055 80 202 3.0 4.0 0.00 0.00 0.00 34 1239.7
20260505214554 80 111 2.0 2.0 0.00 0.00 0.00 33 1239.7
20260505214050 80 177 3.0 3.0 0.00 0.00 0.00 35 1239.7
20260505213548 82 190 3.0 4.0 0.00 0.00 0.00 32 1239.7
20260505213043 82 162 3.0 4.0 0.00 0.00 0.00 32 1239.7
20260505212540 81 113 0.0 1.0 0.00 0.00 0.00 32 1239.7
20260505212038 81 155 1.0 2.0 0.00 0.00 0.00 32 1239.7
20260505211535 81 85 0.0 0.0 0.00 0.00 0.00 32 1239.7
20260505211031 82 166 2.0 3.0 0.00 0.00 0.00 32 1239.7
20260505210528 82 113 2.0 2.0 0.00 0.00 0.00 34 1239.7
20260505210020 82 193 2.0 3.0 0.00 0.00 0.00 33 1239.7
20260505205518 82 137 2.0 3.0 0.00 0.00 0.00 32 1239.7
20260505205015 81 128 2.0 2.0 0.00 0.00 0.00 34 1239.7
20260505204513 81 168 2.0 2.0 0.00 0.00 0.00 34 1239.7
20260505204009 82 126 0.0 0.0 0.00 0.00 0.00 32 1239.7
20260505203505 82 133 0.0 1.0 0.00 0.00 0.00 32 1239.7
20260505203003 82 174 1.0 3.0 0.00 0.00 0.00 32 1239.7
20260505202459 81 133 0.0 1.0 0.00 0.00 0.00 33 1239.7
20260505201955 81 168 2.0 3.0 0.00 0.00 0.00 35 1239.7
20260505201452 81 191 4.0 4.0 0.00 0.00 0.00 33 1239.7
20260505200950 81 130 2.0 2.0 0.00 0.00 0.00 37 1239.7
20260505200448 80 100 1.0 2.0 0.00 0.00 0.00 32 1239.7
20260505195943 80 149 0.0 0.0 0.00 0.00 0.00 33 1239.7
20260505195440 81 180 3.0 3.0 0.00 0.00 0.00 33 1239.7
20260505194938 81 243 0.0 0.0 0.00 0.00 0.00 34 1239.7
20260505194435 82 60 2.0 2.0 0.00 0.00 0.00 33 1239.7
20260505193934 81 133 1.0 2.0 0.00 0.00 0.00 34 1239.7
20260505193432 80 115 0.0 1.0 0.00 0.00 0.00 34 1239.7
20260505192930 80 205 4.0 6.0 0.00 0.00 0.00 35 1239.7
20260505192428 79 141 2.0 2.0 0.00 0.00 0.00 38 1239.7
20260505191926 79 215 3.0 3.0 0.00 0.00 0.00 35 1239.7
20260505191424 79 240 4.0 6.0 0.00 0.00 0.00 35 1239.7
20260505190921 80 154 0.0 1.0 0.00 0.00 0.00 35 1239.7
20260505190416 79 152 1.0 1.0 0.00 0.00 0.00 38 1239.7
20260505185911 79 104 0.0 1.0 0.00 0.00 0.00 37 1239.7
20260505185409 79 220 1.0 2.0 0.00 0.00 0.00 37 1239.7
20260505184905 78 150 1.0 2.0 0.00 0.00 0.00 40 1239.7
20260505184402 79 177 0.0 1.0 0.00 0.00 0.00 37 1239.7
20260505183859 78 171 3.0 3.0 0.00 0.00 0.00 37 1239.7
20260505183355 79 118 2.0 2.0 0.00 0.00 0.00 36 1239.7
20260505182852 78 195 4.0 6.0 0.00 0.00 0.00 38 1239.7
20260505182349 78 100 0.0 0.0 0.00 0.00 0.00 39 1239.7
20260505181845 78 186 4.0 4.0 0.00 0.00 0.00 38 1239.7
20260505181343 79 88 0.0 0.0 0.00 0.00 0.00 39 1239.7
20260505180839 79 182 3.0 3.0 0.00 0.00 0.00 37 1239.7
20260505180336 79 178 0.0 1.0 0.00 0.00 0.00 40 1239.7
20260505175833 78 123 2.0 2.0 0.00 0.00 0.00 39 1239.7
20260505175329 77 135 1.0 1.0 0.00 0.00 0.00 40 1239.7
20260505174826 78 211 4.0 6.0 0.00 0.00 0.00 37 1239.7
20260505174323 78 186 2.0 2.0 0.00 0.00 0.00 39 1239.7
20260505173819 77 185 2.0 2.0 0.00 0.00 0.00 40 1239.7
20260505173315 77 160 3.0 3.0 0.00 0.00 0.00 39 1239.7
20260505172812 77 183 4.0 4.0 0.00 0.00 0.00 41 1239.7
20260505172310 77 125 3.0 3.0 0.00 0.00 0.00 40 1239.7
20260505171805 77 177 1.0 3.0 0.00 0.00 0.00 40 1239.7
20260505171302 77 121 1.0 2.0 0.00 0.00 0.00 41 1239.7
20260505170758 77 117 1.0 1.0 0.00 0.00 0.00 41 1239.7
20260505170256 77 141 1.0 2.0 0.00 0.00 0.00 40 1239.7
20260505165755 77 66 0.0 0.0 0.00 0.00 0.00 41 1239.7
20260505165251 76 85 1.0 1.0 0.00 0.00 0.00 43 1239.7
20260505164747 76 123 2.0 2.0 0.00 0.00 0.00 48 1239.7
20260505164244 76 198 3.0 3.0 0.00 0.00 0.00 41 1239.7
20260505163743 76 214 3.0 3.0 0.00 0.00 0.00 42 1239.7
20260505163241 77 134 0.0 1.0 0.00 0.00 0.00 43 1239.7
20260505162738 75 131 1.0 2.0 0.00 0.00 0.00 44 1239.7
20260505162235 75 83 0.0 1.0 0.00 0.00 0.00 42 1239.7
20260505161732 75 193 4.0 6.0 0.00 0.00 0.00 42 1239.7
20260505161230 75 168 4.0 4.0 0.00 0.00 0.00 45 1239.7
20260505160727 75 126 2.0 2.0 0.00 0.00 0.00 46 1239.7
20260505160225 75 320 3.0 4.0 0.00 0.00 0.00 45 1239.7
20260505153203 73 128 2.0 2.0 0.00 0.00 0.00 46 1239.7
20260505152700 72 179 3.0 4.0 0.00 0.00 0.00 47 1239.7
20260505152156 72 158 2.0 3.0 0.00 0.00 0.00 49 1239.7
20260505151651 71 166 1.0 2.0 0.00 0.00 0.00 50 1239.7
20260505151149 71 171 2.0 2.0 0.00 0.00 0.00 49 1239.7
20260505150645 70 109 0.0 0.0 0.00 0.00 0.00 52 1239.7
20260505150142 70 168 2.0 3.0 0.00 0.00 0.00 49 1239.7
20260505140610 64 91 0.0 0.0 0.00 0.00 0.00 67 1239.7
20260505140108 63 119 0.0 0.0 0.00 0.00 0.00 68 1239.7
20260505125024 55 80 0.0 0.0 0.00 0.00 0.00 87 1239.7
20260505124521 55 80 0.0 0.0 0.00 0.00 0.00 89 1239.7
20260505124017 54 80 0.0 0.0 0.00 0.00 0.00 90 1239.7